Location: Baia Mare
(47.6567°N, 23.5850°E)
Time: 18:57:15
(UTC+03:00)

ISS - Pass Details

Date: 22 May 2018
Orbit: 402 x 407 km, 51.6° (Epoch: 23 May)

Event Time Altitude Azimuth Distance (km) Brightness Sun altitude
Rises 04:06:37 0° 292° (WNW) 2,320 -0.2 -12.7°
Reaches altitude 10° 04:08:45 10° 285° (WNW) 1,458 -1.3 -12.4°
Maximum altitude 04:11:51 42° 214° (SSW) 589 -3.5 -12.1°
Drops below altitude 10° 04:14:57 10° 141° (SE) 1,450 -1.1 -11.8°
Sets 04:17:04 0° 134° (SE) 2,306 0.0 -11.5°
